[[{"header":{"parameterUnit":"m.s-1","parameterCategory":1,"la1":30.2991,"la2":30.254,"lo1":-89.0895,"lo2":-89.0444,"dy":0.0017,"dx":0.0017,"nx":28,"ny":28,"refTime":"2025-08-01T21:00:00:Z","depth":0,"parameterNumber":2,"parameterNumberName":"U-component_of_WINDS"},"data":[0,0,0,0,0,0,0,0,0,0,0,0,0,0,0,0,0,0,0,0,0,0,0,0,0,0,0,0,0,0,0,0,0,0,0,0,0,0,0,0,0,0,0,0,0,0,0,0,0,0,0,0,0,0,0,0,0,0,1.1421,1.1421,0,1.1444,1.1444,1.1444,1.1452,1.1452,1.1452,1.1452,1.1474,1.1475,1.1475,0,0,0,0,0,0,0,0,0,0,0,0,0,1.1381,1.1381,1.1421,1.1421,1.1421,1.1444,1.1444,1.1445,1.1452,1.1452,1.1452,1.1452,1.1474,1.1475,1.1475,0,0,0,0,0,0,0,0,0,0,0,0,0,1.14,1.1382,1.1421,1.1428,1.1429,1.1444,1.1444,1.1445,1.1452,1.1452,1.1452,1.1452,1.1474,1.1475,1.1476,1.1485,0,0,1.1479,1.1479,0,0,0,0,0,0,0,0,1.1399,1.1402,1.1427,1.1428,1.1429,1.1445,1.1438,1.1458,1.1452,1.1443,1.1452,1.1452,1.1464,1.1466,1.1471,1.1486,1.1486,1.1479,1.1479,1.148,1.148,0,0,0,0,0,0,0,1.1398,1.1401,1.143,1.1427,1.1428,1.1429,1.1432,1.1442,1.1454,1.1444,1.1445,1.1448,1.1465,1.147,1.1471,1.1487,1.1479,1.148,1.148,1.1481,1.1508,1.1508,0,0,0,0,0,0,1.1396,1.14,1.1429,1.1431,1.1413,1.143,1.1433,1.144,1.1454,1.1456,1.1448,1.1448,1.1468,1.147,1.1472,1.1483,1.148,1.1481,1.1481,1.1508,1.1508,1.1509,0,0,0,0,0,0,1.1395,1.1398,1.1428,1.1415,1.1419,1.1431,1.1439,1.144,1.1445,1.1457,1.1459,1.1451,1.1468,1.1471,1.1481,1.1484,1.1481,1.1482,1.1508,1.1508,1.1508,1.1504,0,0,0,0,0,0,1.1393,1.1398,1.1402,1.1415,1.142,1.1438,1.1439,1.1441,1.1447,1.1448,1.146,1.1462,1.1468,1.148,1.1482,1.1485,1.1483,1.1508,1.1508,1.1508,1.1504,1.1504,1.1505,0,0,0,0,0,1.1392,1.14,1.1402,1.1406,1.1426,1.1438,1.144,1.1448,1.1447,1.1451,1.1458,1.1462,1.1483,1.1481,1.1484,1.1487,1.1508,1.1508,1.1508,1.1504,1.1504,1.1505,0,0,0,0,0,0,1.1387,1.1402,1.1405,1.1417,1.1426,1.1439,1.1444,1.1448,1.1457,1.1457,1.1465,1.1468,1.1477,1.1483,1.148,1.1495,1.1495,1.1496,1.1491,1.1492,1.1492,1.149,1.1484,0,0,0,0,0,1.1387,1.1396,1.1409,1.1419,1.1423,1.1433,1.1438,1.1443,1.1453,1.1456,1.1464,1.1473,1.1481,1.1487,1.1495,1.1505,1.1507,1.1508,1.1509,1.1509,1.1509,1.1514,1.1514,1.1509,1.1509,1.1509,0,0,1.1388,1.1397,1.1403,1.1418,1.1425,1.1434,1.1436,1.1445,1.1451,1.1458,1.1468,1.1474,1.1484,1.1494,1.1498,1.1499,1.1511,1.1509,1.1509,1.151,1.1514,1.1515,1.1515,1.151,1.151,1.151,0,0,1.1393,1.1402,1.141,1.1418,1.1429,1.1435,1.1437,1.1449,1.1453,1.1464,1.1468,1.1475,1.149,1.1496,1.1502,1.1508,1.1511,1.151,1.151,1.1515,1.1515,1.1515,1.1517,1.1518,1.1511,1.1511,1.1511,0,1.1393,1.1407,1.1414,1.1423,1.1429,1.1435,1.1443,1.1449,1.1463,1.1466,1.1466,1.1484,1.1491,1.1502,1.1504,1.1508,1.1509,1.1509,1.1515,1.1515,1.1515,1.1517,1.1518,1.151,1.151,1.151,1.1511,0,1.1405,1.1414,1.1419,1.1432,1.1439,1.1447,1.1455,1.1461,1.1464,1.147,1.148,1.1488,1.1498,1.1501,1.1505,1.1512,1.1512,1.1513,1.1513,1.1516,1.1517,1.1518,1.151,1.151,1.151,1.151,0,0,1.1409,1.1424,1.1426,1.1432,1.1444,1.1451,1.1458,1.1468,1.1472,1.1481,1.1487,1.1498,1.1499,1.1505,1.151,1.1513,1.1517,1.1514,1.1515,1.1514,1.1524,1.1523,1.1524,1.1518,1.1519,1.1519,1.1523,0,1.1415,1.1431,1.1437,1.1449,1.1457,1.1462,1.1468,1.1476,1.1481,1.1488,1.1493,1.1501,1.1502,1.1506,1.151,1.1515,1.1519,1.1515,1.1524,1.1524,1.1521,1.1525,1.1524,1.1528,1.1524,1.1524,1.1524,0,1.1426,1.1434,1.1447,1.1457,1.146,1.1466,1.1475,1.1482,1.149,1.1493,1.1499,1.1503,1.151,1.151,1.1519,1.1517,1.152,1.1523,1.1524,1.1525,1.1524,1.1525,1.1529,1.1529,1.1525,1.1525,1.1525,0,1.1427,1.1441,1.145,1.1455,1.1467,1.147,1.1475,1.1483,1.1488,1.1496,1.1499,1.1507,1.1511,1.1516,1.1522,1.1521,1.1531,1.1531,1.1533,1.1533,1.1535,1.1535,1.1539,1.1538,1.1538,1.1538,1.1538,0,1.1434,1.1441,1.1451,1.1456,1.1464,1.1471,1.1478,1.1483,1.149,1.1496,1.15,1.1506,1.1513,1.1519,1.1523,1.153,1.1532,1.1534,1.1535,1.1534,1.1533,1.1536,1.1536,1.1538,1.1538,1.1538,1.1538,0,1.1436,1.1443,1.1453,1.1463,1.1466,1.1471,1.1479,1.1484,1.1489,1.1497,1.1499,1.1506,1.1513,1.1519,1.1529,1.1531,1.1538,1.154,1.1536,1.1536,1.1538,1.1538,1.1544,1.1545,1.1543,1.1543,1.1543,0,1.1441,1.1446,1.1457,1.1461,1.1466,1.1473,1.1478,1.1484,1.1489,1.1498,1.1501,1.1509,1.1515,1.1526,1.1532,1.1538,1.154,1.1541,1.1541,1.1539,1.1539,1.1539,1.1539,1.1542,1.1542,1.1542,1.1542,0,1.1447,1.1449,1.1457,1.1465,1.147,1.1477,1.1484,1.1487,1.1494,1.1499,1.1506,1.1511,1.152,1.1527,1.1534,1.1538,1.1541,1.1542,1.1542,1.1541,1.1539,1.154,1.1536,1.1542,1.1542,1.1542,1.1542,1.1542,1.145,1.1455,1.1463,1.147,1.1475,1.1481,1.1486,1.1491,1.1498,1.1506,1.1509,1.1516,1.1522,1.1532,1.1536,1.1542,1.1542,1.1543,1.1544,1.1544,1.1543,1.1538,1.1543,1.1543,1.1543,1.1543,1.1543,0,1.1456,1.1461,1.1468,1.1477,1.1482,1.1484,1.1491,1.1495,1.1502,1.1508,1.1513,1.1521,1.1528,1.1534,1.154,1.1543,1.1544,1.1544,1.1544,1.1545,1.1543,1.1541,1.1543,1.1543,1.1543,1.1543,1.1543,1.1543,1.146,1.1468,1.1471,1.1481,1.1486,1.1493,1.1497,1.1502,1.1507,1.1515,1.1521,1.1524,1.153,1.1537,1.1542,1.1544,1.1546,1.1546,1.1547,1.1545,1.1545,1.1545,1.1544,1.1546,1.1546,1.1549,1.1549,1.1549]},{"header":{"parameterUnit":"m.s-1","parameterCategory":1,"la1":30.2991,"la2":30.254,"lo1":-89.0895,"lo2":-89.0444,"dy":0.0017,"dx":0.0017,"nx":28,"ny":28,"refTime":"2025-08-01T21:00:00:Z","depth":0,"parameterNumber":3,"parameterNumberName":"V-component_of_WINDS"},"data":[0,0,0,0,0,0,0,0,0,0,0,0,0,0,0,0,0,0,0,0,0,0,0,0,0,0,0,0,0,0,0,0,0,0,0,0,0,0,0,0,0,0,0,0,0,0,0,0,0,0,0,0,0,0,0,0,0,0,-0.0105,-0.0105,0,-0.0156,-0.0157,-0.0158,-0.0154,-0.0153,-0.0152,-0.0152,-0.0206,-0.0208,-0.021,0,0,0,0,0,0,0,0,0,0,0,0,0,-0.0006,-0.0007,-0.0105,-0.0106,-0.0106,-0.0156,-0.0157,-0.0158,-0.0154,-0.0153,-0.0152,-0.0151,-0.0205,-0.0208,-0.021,0,0,0,0,0,0,0,0,0,0,0,0,0,-0.0052,-0.0008,-0.0105,-0.011,-0.0111,-0.0156,-0.0157,-0.0158,-0.0154,-0.0153,-0.0152,-0.0151,-0.0204,-0.0208,-0.0211,-0.0254,0,0,-0.0221,-0.0222,0,0,0,0,0,0,0,0,-0.0049,-0.0056,-0.0109,-0.011,-0.0111,-0.0147,-0.0142,-0.019,-0.0154,-0.0138,-0.0152,-0.015,-0.0188,-0.0192,-0.0204,-0.0257,-0.0259,-0.0221,-0.0223,-0.0224,-0.0225,0,0,0,0,0,0,0,-0.0046,-0.0054,-0.0125,-0.011,-0.0111,-0.0111,-0.0116,-0.0151,-0.0169,-0.0139,-0.0139,-0.0145,-0.0188,-0.0201,-0.0206,-0.026,-0.0221,-0.0224,-0.0226,-0.0227,-0.0352,-0.0353,0,0,0,0,0,0,-0.0042,-0.0051,-0.0124,-0.0127,-0.0077,-0.0114,-0.012,-0.0137,-0.0168,-0.0172,-0.0146,-0.0145,-0.0196,-0.0202,-0.0208,-0.0261,-0.0224,-0.0227,-0.0229,-0.035,-0.0352,-0.0354,0,0,0,0,0,0,-0.0039,-0.0048,-0.0122,-0.0089,-0.0098,-0.0117,-0.0136,-0.0139,-0.0152,-0.0173,-0.0177,-0.0156,-0.0196,-0.0203,-0.0243,-0.0263,-0.0229,-0.0232,-0.0349,-0.0351,-0.0353,-0.0369,0,0,0,0,0,0,-0.0037,-0.0047,-0.0063,-0.0089,-0.01,-0.0155,-0.0137,-0.014,-0.0157,-0.0156,-0.0184,-0.0187,-0.0195,-0.0238,-0.0246,-0.0267,-0.0234,-0.0347,-0.035,-0.0352,-0.0366,-0.0371,-0.0375,0,0,0,0,0,-0.0033,-0.0066,-0.0064,-0.0073,-0.012,-0.0156,-0.0163,-0.0171,-0.0159,-0.0176,-0.019,-0.0186,-0.0259,-0.0242,-0.0251,-0.0273,-0.0346,-0.0349,-0.0352,-0.0364,-0.037,-0.0375,0,0,0,0,0,0,-0.0042,-0.0069,-0.0068,-0.0109,-0.0131,-0.0156,-0.0177,-0.0176,-0.0201,-0.0199,-0.0208,-0.0215,-0.0255,-0.0268,-0.0248,-0.0318,-0.0301,-0.0306,-0.0308,-0.0313,-0.0317,-0.0314,-0.0237,0,0,0,0,0,-0.0049,-0.0075,-0.0098,-0.0132,-0.0143,-0.0158,-0.0174,-0.0179,-0.0201,-0.021,-0.0227,-0.025,-0.0278,-0.0296,-0.0323,-0.0368,-0.0375,-0.0388,-0.0392,-0.0396,-0.04,-0.0426,-0.0433,-0.0364,-0.0364,-0.0364,0,0,-0.0063,-0.0081,-0.0097,-0.0135,-0.0152,-0.018,-0.0166,-0.0196,-0.0217,-0.0215,-0.0254,-0.0267,-0.0293,-0.0336,-0.0356,-0.0348,-0.0421,-0.04,-0.0402,-0.0405,-0.043,-0.0437,-0.0442,-0.0366,-0.0365,-0.0365,0,0,-0.0103,-0.0119,-0.0151,-0.0168,-0.0194,-0.0204,-0.0211,-0.0237,-0.0246,-0.0285,-0.0284,-0.031,-0.0358,-0.0376,-0.0392,-0.0441,-0.044,-0.045,-0.0472,-0.0498,-0.0503,-0.0508,-0.0527,-0.0533,-0.0454,-0.0454,-0.0454,0,-0.0118,-0.016,-0.0167,-0.0198,-0.0215,-0.0214,-0.0246,-0.0263,-0.0297,-0.0309,-0.03,-0.0361,-0.0378,-0.0426,-0.0438,-0.045,-0.046,-0.0447,-0.0502,-0.0507,-0.0511,-0.0529,-0.0536,-0.0455,-0.0455,-0.0455,-0.0455,0,-0.0177,-0.0206,-0.0228,-0.0261,-0.028,-0.0312,-0.0325,-0.0344,-0.0347,-0.0358,-0.0399,-0.0419,-0.0451,-0.0463,-0.0466,-0.0512,-0.0506,-0.0499,-0.0483,-0.0519,-0.0536,-0.0543,-0.0457,-0.0457,-0.0456,-0.0456,0,0,-0.0224,-0.0261,-0.0269,-0.0284,-0.0313,-0.0336,-0.0368,-0.0399,-0.0415,-0.0439,-0.0467,-0.0508,-0.0502,-0.052,-0.0525,-0.0547,-0.0587,-0.0538,-0.0539,-0.0547,-0.064,-0.0645,-0.0653,-0.0586,-0.0587,-0.0588,-0.0638,0,-0.0268,-0.0324,-0.0332,-0.0382,-0.041,-0.041,-0.0438,-0.0459,-0.0471,-0.0497,-0.051,-0.054,-0.0529,-0.054,-0.0562,-0.0577,-0.0605,-0.0573,-0.0613,-0.0614,-0.0607,-0.0662,-0.0667,-0.0714,-0.0644,-0.0646,-0.0646,0,-0.0327,-0.0352,-0.0405,-0.0431,-0.0443,-0.0468,-0.0497,-0.0522,-0.0546,-0.0554,-0.0574,-0.0577,-0.0612,-0.0594,-0.0642,-0.062,-0.0637,-0.0647,-0.0649,-0.0653,-0.0633,-0.0668,-0.0728,-0.0736,-0.0657,-0.0656,-0.0655,0,-0.0357,-0.0404,-0.0442,-0.0455,-0.0486,-0.0504,-0.0518,-0.0541,-0.056,-0.0586,-0.0598,-0.0628,-0.0645,-0.0668,-0.068,-0.0666,-0.0728,-0.071,-0.0736,-0.0735,-0.0749,-0.0748,-0.0813,-0.0758,-0.0758,-0.0758,-0.0758,0,-0.0406,-0.0438,-0.0456,-0.0479,-0.0516,-0.0526,-0.0562,-0.0576,-0.0597,-0.0624,-0.0626,-0.0651,-0.0664,-0.0692,-0.0701,-0.074,-0.0748,-0.0755,-0.0757,-0.0755,-0.0754,-0.0767,-0.0764,-0.076,-0.076,-0.0759,-0.0759,0,-0.0446,-0.0459,-0.05,-0.0527,-0.0534,-0.0561,-0.0584,-0.0607,-0.0619,-0.0653,-0.0661,-0.068,-0.0713,-0.0727,-0.0767,-0.0773,-0.0818,-0.0818,-0.081,-0.0811,-0.0835,-0.0833,-0.0911,-0.0922,-0.0859,-0.086,-0.086,0,-0.0476,-0.0501,-0.0531,-0.0549,-0.0563,-0.0592,-0.0611,-0.0622,-0.0642,-0.0673,-0.0692,-0.0725,-0.0752,-0.0804,-0.0822,-0.0853,-0.0854,-0.0879,-0.0858,-0.0856,-0.0855,-0.0854,-0.0857,-0.0883,-0.0883,-0.0884,-0.0884,0,-0.053,-0.0535,-0.0562,-0.0592,-0.0614,-0.0638,-0.0662,-0.0676,-0.0691,-0.0714,-0.0747,-0.0768,-0.0809,-0.0842,-0.0874,-0.0889,-0.089,-0.0891,-0.0898,-0.0897,-0.0892,-0.0896,-0.0821,-0.0889,-0.0888,-0.0888,-0.0888,-0.0888,-0.0566,-0.0589,-0.0614,-0.0644,-0.0663,-0.0685,-0.0709,-0.0724,-0.0751,-0.0786,-0.079,-0.0826,-0.0852,-0.0895,-0.0912,-0.0941,-0.0935,-0.0946,-0.0949,-0.0951,-0.0953,-0.0887,-0.0947,-0.0947,-0.0947,-0.0947,-0.0947,0,-0.062,-0.0636,-0.0664,-0.0697,-0.0722,-0.0719,-0.0746,-0.0766,-0.0798,-0.0821,-0.0848,-0.0887,-0.0919,-0.0939,-0.0972,-0.0992,-0.0993,-0.1,-0.0999,-0.1003,-0.0957,-0.0947,-0.0998,-0.0998,-0.0998,-0.0998,-0.0998,-0.0998,-0.0651,-0.069,-0.0699,-0.0747,-0.0763,-0.0798,-0.0814,-0.0835,-0.0854,-0.0897,-0.0924,-0.0937,-0.096,-0.0994,-0.1024,-0.1029,-0.1042,-0.1049,-0.1055,-0.1011,-0.1006,-0.1001,-0.0992,-0.1052,-0.1052,-0.1098,-0.1099,-0.1099]}]]